This is the latest recevied weather packets stored in our database for station/object N1UNH. If no packets are shown the sender has not sent any weather packets the latest 10 day(s).
| Time | Temp. | Humidity | Pressure | Rain* | Wind** | Luminosity | Snow |
|---|---|---|---|---|---|---|---|
| 1778212917 | 5° C | 67% | 1014.2 hPa | 0 mm | - | 0 W/m² | - |
| 1778212614 | 5° C | 67% | 1014 hPa | 0 mm | - | 0 W/m² | - |
| 1778212311 | 5° C | 69% | 1014 hPa | 0 mm | - | 0 W/m² | - |
| 1778212008 | 5.56° C | 69% | 1014.1 hPa | 0 mm | - | 0 W/m² | - |
| 1778211705 | 5.56° C | 68% | 1014.2 hPa | 0 mm | - | 0 W/m² | - |
| 1778211402 | 5.56° C | 68% | 1014.2 hPa | 0 mm | - | 0 W/m² | - |
| 1778211100 | 5.56° C | 68% | 1014 hPa | 0 mm | - | 0 W/m² | - |
| 1778210797 | 6.11° C | 69% | 1014.3 hPa | 0 mm | - | 0 W/m² | - |
| 1778210494 | 6.11° C | 67% | 1014.2 hPa | 0 mm | - | 0 W/m² | - |
| 1778210191 | 6.11° C | 67% | 1013.9 hPa | 0 mm | - | 0 W/m² | - |
| 1778209887 | 6.11° C | 64% | 1014.1 hPa | 0 mm | - | 0 W/m² | - |
| 1778209584 | 6.11° C | 63% | 1014.1 hPa | 0 mm | - | 0 W/m² | - |
| 1778209282 | 6.67° C | 63% | 1014 hPa | 0 mm | - | 0 W/m² | - |
| 1778208978 | 6.67° C | 65% | 1013.9 hPa | 0 mm | - | 0 W/m² | - |
| 1778208675 | 6.67° C | 67% | 1014.2 hPa | 0 mm | - | 0 W/m² | - |
| 1778208370 | 6.67° C | 68% | 1014.1 hPa | 0 mm | - | 0 W/m² | - |
| 1778208068 | 6.67° C | 69% | 1014.1 hPa | 0 mm | - | 0 W/m² | - |
| 1778207764 | 6.67° C | 69% | 1014 hPa | 0 mm | - | 0 W/m² | - |
| 1778207462 | 6.67° C | 68% | 1014.2 hPa | 0 mm | - | 0 W/m² | - |
| 1778207157 | 6.67° C | 65% | 1014.1 hPa | 0 mm | - | 0 W/m² | - |
| 1778206855 | 6.67° C | 67% | 1014.2 hPa | 0 mm | - | 0 W/m² | - |
| 1778206550 | 6.67° C | 65% | 1013.8 hPa | 0 mm | - | 0 W/m² | - |
| 1778206246 | 6.67° C | 64% | 1013.9 hPa | 0 mm | - | 0 W/m² | - |
| 1778205944 | 7.22° C | 61% | 1013.5 hPa | 0 mm | - | 0 W/m² | - |
| 1778205642 | 7.22° C | 60% | 1013.8 hPa | 0 mm | - | 0 W/m² | - |
* Rain latest hour (hover to see other rain measurements)
** Current wind speed in m/s (hover to see current wind gust speed)